Flag for Japan Weather past 2 weeks in Himeji, Japan

Now
46 °F

Passing clouds.


Feels Like: 39 °F
Forecast: 33 / 47 °F
Wind: 17 mph from West

Location: Kansai International Airport

Current Time: Dec 23, 2014 at 2:24:58 AM

Latest Report: Dec 23, 2014 at 2:00 AM


Visibility: N/A

Pressure: 30.18 "Hg

Humidity: 50%

Dew point: 28 °F

Location of HimejiLocation

Historic Weather in Himeji — Graph

°F

Himeji temperature yesterday

Maximum temperature yesterday: 45 °F (at 10:00 PM)
Minimum temperature yesterday: 37 °F (at 6:30 AM)
Average temperature yesterday: 41 °F

Past Weeks' High & Low Weather Summary

 TemperatureHumidityPressure
High55 °F (Dec 9, 3:00 PM)94% (Dec 11, 9:00 AM)30.51 "Hg (Dec 11, 9:00 AM)
Low36 °F (Dec 17, 7:30 AM)31% (Dec 13, 5:00 PM)29.65 "Hg (Dec 16, 12:30 PM)
Average45 °F55%30.13 "Hg
* Reported Dec 8 1:00 AM — Dec 23 1:00 AM, Himeji, Weather by CustomWeather, © 2014

Note: Actual official high and low records may vary slightly from our data, if they occured in-between our weather recording intervals... More about our weather records

Advertising

Himeji weather history for previous 24 hours

 ConditionsComfort  
Time TempWeatherWind HumidityBarometerVisibility
1:00 AM
Dec 23
45 °FPartly cloudy.18 mph53%30.18 "HgN/A
12:30 AM45 °FPartly cloudy.17 mph49%30.18 "HgN/A
12:00 AM45 °FPassing clouds.18 mph49%30.18 "HgN/A
11:30 PM
Dec 22
45 °FPassing clouds.17 mph53%30.18 "HgN/A
11:00 PM45 °FPassing clouds.16 mph49%30.18 "HgN/A
10:30 PM45 °FScattered showers. Partly cloudy.16 mph49%30.15 "HgN/A
10:00 PM45 °FScattered showers. Partly cloudy.16 mph49%30.15 "HgN/A
9:30 PM43 °FScattered showers. Passing clouds.16 mph53%30.15 "HgN/A
9:00 PM43 °FPartly cloudy.16 mph49%30.15 "HgN/A
8:30 PM43 °FPassing clouds.16 mph49%30.15 "HgN/A
8:00 PM43 °FPassing clouds.20 mph46%30.15 "HgN/A
7:30 PM43 °FPassing clouds.18 mph46%30.15 "HgN/A
7:00 PM43 °FPassing clouds.18 mph42%30.12 "HgN/A
6:30 PM41 °FPassing clouds.21 mph45%30.12 "HgN/A
6:00 PM41 °FPassing clouds.18 mph45%30.12 "HgN/A
5:30 PM41 °FPassing clouds.20 mph42%30.12 "HgN/A
5:00 PM41 °FPassing clouds.17 mph42%30.09 "HgN/A
4:46 PM41 °FScattered clouds.17 mph42%30.09 "HgN/A
4:30 PM41 °FScattered showers. Scattered clouds.18 mph45%30.09 "HgN/A
4:00 PM41 °FSnow flurries. Scattered clouds.20 mph45%30.09 "HgN/A
3:30 PM41 °FScattered showers. Scattered clouds.17 mph42%30.09 "HgN/A
3:00 PM41 °FSnow flurries. Broken clouds.20 mph42%30.09 "HgN/A
2:30 PM41 °FSnow flurries. Broken clouds.21 mph45%30.09 "HgN/A
2:00 PM41 °FScattered showers. Scattered clouds.20 mph42%30.09 "HgN/A
1:30 PM41 °FScattered showers. Scattered clouds.18 mph39%30.07 "HgN/A
12:30 PM41 °FSnow flurries. Broken clouds.20 mph42%30.09 "HgN/A
12:00 PM41 °FScattered showers. Broken clouds.18 mph39%30.09 "HgN/A
11:30 AM41 °FBroken clouds.21 mph42%30.09 "HgN/A
11:00 AM41 °FScattered clouds.24 mph39%30.12 "HgN/A
10:30 AM41 °FBroken clouds.18 mph42%30.12 "HgN/A
10:00 AM41 °FScattered showers. Broken clouds.16 mph49%30.12 "HgN/A
9:30 AM41 °FScattered showers. Broken clouds.17 mph45%30.12 "HgN/A
9:00 AM41 °FScattered showers. Broken clouds.20 mph49%30.09 "HgN/A
8:30 AM41 °FSnow flurries. Broken clouds.17 mph49%30.09 "HgN/A
8:00 AM39 °FScattered showers. Broken clouds.17 mph52%30.07 "HgN/A
7:30 AM39 °FScattered showers. Broken clouds.17 mph61%30.07 "HgN/A
6:30 AM37 °FSnow flurries. Partly cloudy.17 mph75%30.04 "HgN/A
6:00 AM39 °FSnow flurries. Passing clouds.14 mph61%30.04 "HgN/A
5:30 AM39 °FPassing clouds.14 mph56%30.04 "HgN/A
5:00 AM39 °FPassing clouds.14 mph56%30.01 "HgN/A
4:30 AM39 °FPassing clouds.15 mph48%30.01 "HgN/A
4:00 AM39 °FPassing clouds.13 mph52%30.01 "HgN/A
3:30 AM39 °FPassing clouds.14 mph48%30.04 "HgN/A
3:00 AM39 °FPassing clouds.12 mph45%30.04 "HgN/A
2:30 AM39 °FPassing clouds.10 mph45%30.04 "HgN/A
2:00 AM39 °FPartly cloudy.10 mph45%30.04 "HgN/A
Weather by CustomWeather, © 2014

See weather overviewHow to use our weather pages